date,batt_volt,AirTemp_C,Solar_kW,RH,Manual_BP,StationID,WS_ms,PTemp,WS_15min_max,Prog_Sig,Solar_Raw,Bar_mbar,Solar_MJ,Max_WS_2min,Pressure_Raw,Rain_mm,WD_15min_ave,Max_AirTemp_1min,WindDir,WS_15min_med,WS_15min_ave,Elevation_Correction
2021-02-01T00:14:35Z,13.72725,-2.947872,0.0,83.64747,0,1156,0,-2.24818,0,43690,0.0,1024.796,0.0,0,1022.995,0,0.706651231922,-2.88,0.6992698,0,0,1.80078
2021-02-01T00:29:34Z,13.73294,-2.948269,0.0,83.81638,0,1156,0,-2.24818,0,43690,0.0,1024.796,0.0,0,1022.995,0,0.707254237544,-2.846,0.6992622,0,0,1.80078
2021-02-01T00:44:34Z,13.72767,-3.015991,0.0,83.98664,0,1156,0,-2.24818,0,43690,0.0,1024.796,0.0,0,1022.995,0,0.708877928577,-2.914,0.7233787,0,0,1.80078
2021-02-01T00:59:36Z,13.72723,-2.981945,0.0,84.19061,0,1156,0,-2.24818,0,43690,0.0,1024.796,0.0,0,1022.995,0,0.705825398225,-2.846,0.7233803,0,0,1.80078
2021-02-01T01:14:36Z,13.7269,-3.016254,0.0,84.22378,0,1156,0,-2.270771,0,43690,0.0,1024.143,0.0,0,1022.342,0,0.706113008279,-2.813,0.699261,0,0,1.80078
2021-02-01T01:29:36Z,13.72743,-2.847157,0.0,84.12029,0,1156,0,-2.227844,0,43690,0.0,1024.143,0.0,0,1022.342,0,0.705397904733,-2.847,0.6992477,0,0,1.80078
2021-02-01T01:44:33Z,13.72683,-2.913937,0.0,84.15684,0,1156,0,-2.24818,0,43690,0.0,1024.143,0.0,0,1022.342,0,0.705148136937,-2.88,0.7233819,0,0,1.80078
2021-02-01T01:59:35Z,13.72765,-3.01646,0.0,84.32518,0,1156,0,-2.205254,0,43690,0.0,1024.143,0.0,0,1022.342,0,0.704255883437,-2.915,0.6992571,0,0,1.80078
2021-02-01T02:14:34Z,13.72696,-2.947884,0.0,84.66629,0,1156,0,-2.205254,0,43690,0.0,1024.789,0.0,0,1022.988,0,0.702975950308,-2.948,0.6751568,0,0,1.80078
2021-02-01T02:29:37Z,13.72067,-2.948997,0.0,83.8487,0,1156,0,-2.227844,0,43690,0.0,1024.789,0.0,0,1022.988,0,0.703097952351,-2.982,0.6992484,0,0,1.80078
2021-02-01T02:44:37Z,13.72181,-2.948772,0.0,82.86434,0,1156,0,-2.227844,0,43690,0.0,1024.789,0.0,0,1022.988,0,0.701821957397,-2.982,0.7233649,0,0,1.80078
2021-02-01T02:59:39Z,13.72197,-3.016415,0.0,82.45742,0,1156,0,-2.24818,0,43690,0.0,1024.789,0.0,0,1022.988,0,0.699249967647,-2.982,0.6751456,0,0,1.80078
2021-02-01T03:14:37Z,13.72214,-3.084049,0.0,81.94866,0,1156,0,-2.24818,0,43690,0.0,1024.463,0.0,0,1022.662,0,0.698979318368,-2.982,0.6992634,0,0,1.80078
2021-02-01T03:29:39Z,13.72212,-3.083805,0.0,81.5077,0,1156,0,-2.24818,0,43690,0.0,1024.463,0.0,0,1022.662,0,0.697846612942,-3.016,0.6751554,0,0,1.80078
2021-02-01T03:44:36Z,13.72214,-3.050278,0.0,81.91428,0,1156,0,-2.270771,0,43690,0.0,1024.463,0.0,0,1022.662,0,0.695697589349,-2.982,0.6992598,0,0,1.80078
2021-02-01T03:59:38Z,13.72767,-3.049763,0.0,82.35692,0,1156,0,-2.291103,0,43690,0.0,1024.463,0.0,0,1022.662,0,0.690615207628,-3.05,0.6751568,0,0,1.80078
2021-02-01T04:14:40Z,13.72767,-3.083717,0.0,82.32297,0,1156,0,-2.313698,0,43690,0.0,1025.285,0.0,0,1023.484,0,0.693170651723,-3.05,0.6992698,0,0,1.80078
2021-02-01T04:29:42Z,13.72758,-3.185604,0.0,81.64374,0,1156,0,-2.356625,0,43690,0.0,1025.285,0.0,0,1023.484,0,0.689199155297,-3.084,0.675157,0,0,1.80078
2021-02-01T04:44:37Z,13.72767,-3.083717,0.0,81.40601,0,1156,0,-2.376957,0,43690,0.0,1025.285,0.0,0,1023.484,0,0.689139565109,-3.084,0.6510442,0,0,1.80078
2021-02-01T04:59:39Z,13.72221,-3.151642,0.0,82.15316,0,1156,0,-2.399548,0,43690,0.0,1025.285,0.0,0,1023.484,0,0.687355238276,-3.186,0.6992698,0,0,1.80078
2021-02-01T05:14:41Z,13.72768,-3.287487,0.0,82.62862,0,1156,0,-2.442474,0,43690,0.0,1025.367,0.0,0,1023.566,0,0.687071554664,-3.152,0.6992698,0,0,1.80078
2021-02-01T05:29:37Z,13.72744,-3.389168,0.0,83.24039,0,1156,0,-2.462807,0,43690,0.0,1025.367,0.0,0,1023.566,0,0.686862952061,-3.219,0.6751608,0,0,1.80078
2021-02-01T05:44:41Z,13.72767,-3.422508,0.0,84.22672,0,1156,0,-2.505733,0,43690,0.0,1025.367,0.0,0,1023.566,0,0.681685662308,-3.32,0.6751722,0,0,1.80078
2021-02-01T05:59:42Z,13.72767,-3.422817,0.0,84.93922,0,1156,0,-2.54866,0,43690,0.0,1025.367,0.0,0,1023.566,0,0.67956660703,-3.355,0.6992796,0,0,1.80078
2021-02-01T06:14:38Z,13.73401,-3.489571,0.0,84.90798,0,1156,0,-2.591587,0,43690,0.0,1025.871,0.0,0,1024.07,0,0.680034806537,-3.387,0.6993021,0,0,1.80078
2021-02-01T06:29:39Z,13.73457,-3.455166,0.0,83.99199,0,1156,0,-2.611919,0,43690,0.0,1025.871,0.0,0,1024.07,0,0.681581015885,-3.455,0.6993106,0,0,1.80078
2021-02-01T06:44:40Z,13.73519,-3.419281,0.0,83.6907,0,1156,0,-2.63451,0,43690,0.0,1025.871,0.0,0,1024.07,0,0.680602532352,-3.351,0.6511164,0,0,1.80078
2021-02-01T06:59:41Z,13.73492,-3.52063,0.0,84.67697,0,1156,0,-2.654842,0,43690,0.0,1025.871,0.0,0,1024.07,0,0.677790398241,-3.385,0.6752419,0,0,1.80078
2021-02-01T07:14:43Z,13.7407,-3.622986,0.0,86.00056,0,1156,0,-2.677437,0,43690,0.0,1025.673,0.0,0,1023.872,0,0.675099912277,-3.555,0.6752334,0,0,1.80078
2021-02-01T07:29:43Z,13.73503,-3.689247,0.0,86.41213,0,1156,0,-2.697769,0,43690,0.0,1025.673,0.0,0,1023.872,0,0.67241295763,-3.587,0.6752646,0,0,1.80078
2021-02-01T07:44:44Z,13.73543,-3.621349,0.0,84.88352,0,1156,0,-2.740696,0,43690,0.0,1025.673,0.0,0,1023.872,0,0.677101909967,-3.554,0.6511472,0,0,1.80078
2021-02-01T07:59:45Z,13.74104,-3.553818,0.0,84.40705,0,1156,0,-2.763287,0,43690,0.0,1025.673,0.0,0,1023.872,0,0.676827346458,-3.485,0.6993727,0,0,1.80078
2021-02-01T08:14:41Z,13.74103,-3.519436,0.0,84.03438,0,1156,0,-2.763287,0,43690,0.0,1025.444,0.0,0,1023.643,0,0.678548084644,-3.486,0.6752641,0,0,1.80078
2021-02-01T08:29:42Z,13.74051,-3.485092,0.0,83.5597,0,1156,0,-2.740696,0,43690,0.0,1025.444,0.0,0,1023.643,0,0.679238278198,-3.383,0.675271,0,0,1.80078
2021-02-01T08:44:44Z,13.73552,-3.451092,0.0,83.55977,0,1156,0,-2.740696,0,43690,0.0,1025.444,0.0,0,1023.643,0,0.678959975899,-3.417,0.6752716,0,0,1.80078
2021-02-01T08:59:45Z,13.73488,-3.41785,0.0,83.59208,0,1156,0,-2.720364,0,43690,0.0,1025.444,0.0,0,1023.643,0,0.679946205273,-3.35,0.6752582,0,0,1.80078
2021-02-01T09:14:45Z,13.73552,-3.417908,0.0,83.99955,0,1156,0,-2.697769,0,43690,0.0,1026.426,0.0,0,1024.625,0,0.678665865289,-3.349,0.6752572,0,0,1.80078
2021-02-01T09:29:44Z,13.74077,-3.486546,0.0,83.89603,0,1156,0,-2.697769,0,43690,0.0,1026.426,0.0,0,1024.625,0,0.67496654409,-3.418,0.6511283,0,0,1.80078
2021-02-01T09:44:45Z,13.74022,-3.48616,0.0,83.93089,0,1156,0,-2.697769,0,43690,0.0,1026.426,0.0,0,1024.625,0,0.677245181156,-3.384,0.6511352,0,0,1.80078
2021-02-01T09:59:42Z,13.74051,-3.452053,0.0,84.135,0,1156,0,-2.697769,0,43690,0.0,1026.426,0.0,0,1024.625,0,0.677393653885,-3.35,0.6511376,0,0,1.80078
2021-02-01T10:14:45Z,13.74021,-3.519615,0.0,83.01495,0,1156,0,-2.697769,0,43690,0.0,1025.771,0.0,0,1023.97,0,0.677390701189,-3.486,0.6752607,0,0,1.80078
2021-02-01T10:29:46Z,13.74083,-3.453098,0.0,82.53622,0,1156,0,-2.697769,0,43690,0.0,1025.771,0.0,0,1023.97,0,0.675817245351,-3.351,0.6993501,0,0,1.80078
2021-02-01T10:44:47Z,13.74096,-3.587868,0.0,82.57266,0,1156,0,-2.697769,0,43690,0.0,1025.771,0.0,0,1023.97,0,0.673540475261,-3.384,0.6511386,0,0,1.80078
2021-02-01T10:59:43Z,13.74103,-3.349579,0.0,83.38905,0,1156,0,-2.697769,0,43690,0.0,1025.771,0.0,0,1023.97,0,0.672115039066,-3.384,0.6511478,0,0,1.80078
2021-02-01T11:14:45Z,13.74074,-3.51971,0.0,83.99977,0,1156,0,-2.720364,0,43690,0.0,1027.08,0.0,0,1025.28,0,0.671290499382,-3.485,0.675259,0,0,1.80078
2021-02-01T11:29:47Z,13.74097,-3.587132,0.0009663214,84.13682,0,1156,0,-2.740696,0,43690,0.0676425,1027.08,4.831607e-06,0,1025.28,0,0.672144447047,-3.485,0.6511517,0,0,1.80078
2021-02-01T11:44:45Z,13.74107,-3.519405,0.002898964,82.77766,0,1156,0,-2.740696,0,43690,0.2029275,1027.08,1.449482e-05,0,1025.28,0,0.671840916605,-3.486,0.6752646,0,0,1.80078
2021-02-01T11:59:48Z,13.74609,-3.485146,0.00676425,82.71039,0,1156,0,-2.740696,0,43690,0.4734974,1027.08,3.382124e-05,0,1025.28,0,0.672709598796,-3.383,0.6511532,0,0,1.80078
2021-02-01T12:14:45Z,13.74059,-3.349731,0.0159443,82.64142,0,1156,0,-2.720364,0,43690,1.116101,1026.759,7.972151e-05,0,1024.958,0,0.676404983998,-3.316,0.6752617,0,0,1.80078
2021-02-01T12:29:47Z,13.74046,-3.417408,0.02560752,82.09854,0,1156,0,-2.677437,0,43690,1.792526,1026.759,0.0001280376,0,1024.958,0,0.677951551766,-3.316,0.6752664,0,0,1.80078
2021-02-01T12:44:45Z,13.74021,-3.317371,0.03575389,81.14334,0,1156,0,-2.591587,0,43690,2.502772,1026.759,0.0001787694,0,1024.958,0,0.681681293519,-3.351,0.6752321,0,0,1.80078
2021-02-01T12:59:49Z,13.73944,-3.25087,0.04396762,81.34396,0,1156,0,-2.505733,0,43690,3.077734,1026.759,0.0002198381,0,1024.958,0,0.686566218862,-3.183,0.6993202,0,0,1.80078
2021-02-01T13:14:47Z,13.73323,-3.11684,0.06281089,79.94748,0,1156,0,-2.376957,0,43690,4.396762,1028.023,0.0003140545,0,1026.222,0,0.694735443165,-3.015,0.6751725,0,0,1.80078
2021-02-01T13:29:49Z,13.722,-2.913879,0.08938473,78.82499,0,1156,0,-2.162327,0,43690,6.256931,1028.023,0.0004469236,0,1026.222,0,0.705656744155,-2.812,0.723383,0,0,1.80078
2021-02-01T13:44:51Z,13.71565,-2.882229,0.09759846,77.69942,0,1156,0,-1.927364,0,43690,6.831892,1028.023,0.0004879923,0,1026.222,0,0.717402581802,-2.713,0.6992269,0,0,1.80078
2021-02-01T13:59:47Z,13.70336,-2.613842,0.1174035,76.7418,0,1156,0,-1.692402,0,43690,8.218246,1028.023,0.0005870175,0,1026.222,0,0.727574739066,-2.614,0.7473836,0,0,1.80078
2021-02-01T14:14:48Z,13.6977,-2.682491,0.1183593,76.67237,0,1156,0,-1.459702,0,43690,8.285151,1027.324,0.0005917965,0,1025.523,0,0.738579491754,-2.716,0.7473689,0,0,1.80078
2021-02-01T14:29:49Z,13.69217,-2.444809,0.1338131,76.33279,0,1156,0,-1.245071,0,43690,9.366914,1027.324,0.0006690653,0,1025.523,0,0.748219506502,-2.411,0.7714772,0,0,1.80078
2021-02-01T14:44:51Z,13.68664,-2.512722,0.1550625,75.4839,0,1156,0,-1.032703,0,43690,10.85437,1027.324,0.0007753122,0,1025.523,0,0.747794028187,-2.343,0.7473686,0,0,1.80078
2021-02-01T14:59:52Z,13.68664,-2.105251,0.1453988,75.44994,0,1156,0,-0.7774086,0,43690,10.17791,1027.324,0.0007269938,0,1025.523,0,0.742972297044,-2.105,0.7473686,0,0,1.80078
2021-02-01T15:14:48Z,13.68111,-2.037338,0.1637388,75.31412,0,1156,0,-0.5853691,0,43690,11.46172,1028.212,0.0008186941,0,1026.411,0,0.747083273373,-2.139,0.7473686,0,0,1.80078
2021-02-01T15:29:49Z,13.67551,-1.971695,0.1772601,75.13986,0,1156,0,-0.3933334,0,43690,12.40821,1028.212,0.0008863006,0,1026.411,0,0.739557670051,-2.005,0.7473242,0,0,1.80078
2021-02-01T15:44:52Z,13.66773,-1.841431,0.1676001,75.09498,0,1156,0,-0.2238922,0,43690,11.73201,1028.212,0.0008380006,0,1026.411,0,0.747855290001,-1.909,0.7472154,0,0,1.80078
2021-02-01T15:59:48Z,13.6664,-1.879356,0.1540762,74.81558,0,1156,0,-0.09511185,0,43690,10.78534,1028.212,0.000770381,0,1026.411,0,0.717219237521,-1.777,0.7471374,0,0,1.80078
2021-02-01T16:14:51Z,13.66546,-1.914043,0.2081719,74.74624,0,1156,0,0.0314064,0,43690,14.57204,1027.231,0.00104086,0,1025.43,0,0.746984865318,-1.812,0.7471229,0,0,1.80078
2021-02-01T16:29:52Z,13.66014,-1.846275,0.1733961,74.47444,0,1156,0,0.1172562,0,43690,12.13773,1027.231,0.0008669805,0,1025.43,0,0.744575347027,-1.744,0.7471205,0,0,1.80078
2021-02-01T16:44:53Z,13.65468,-1.87933,0.1791921,74.0349,0,1156,0,0.1805153,0,43690,12.54345,1027.231,0.0008959603,0,1025.43,0,0.746842562425,-1.777,0.747138,0,0,1.80078
2021-02-01T16:59:53Z,13.65478,-1.77813,0.187886,72.4722,0,1156,0,0.2663651,0,43690,13.15202,1027.231,0.0009394302,0,1025.43,0,0.731385664339,-1.676,0.7471254,0,0,1.80078
2021-02-01T17:14:54Z,13.64904,-1.336937,0.188852,70.06195,0,1156,0,0.3522186,0,43690,13.21964,1027.143,0.0009442601,0,1025.342,0,0.709702981678,-1.439,0.6989222,0,0,1.80078
2021-02-01T17:29:51Z,13.64332,-1.371334,0.1589062,70.36663,0,1156,0,0.4787369,0,43690,11.12343,1027.143,0.0007945309,0,1025.342,0,0.70447798698,-1.303,0.7230146,0,0,1.80078
2021-02-01T17:44:53Z,13.63777,-1.371334,0.1250964,71.4189,0,1156,0,0.5645866,0,43690,8.756746,1027.143,0.0006254818,0,1025.342,0,0.700331775868,-1.303,0.6748136,0,0,1.80078
2021-02-01T17:59:54Z,13.6433,-1.507111,0.1154364,70.87579,0,1156,0,0.541996,0,43690,8.080548,1027.143,0.000577182,0,1025.342,0,0.700331775861,-1.405,0.6989141,0,0,1.80078
2021-02-01T18:14:55Z,13.64883,-1.507111,0.1164024,70.5024,0,1156,0,0.4787369,0,43690,8.148168,1027.952,0.0005820119,0,1026.151,0,0.699764705303,-1.405,0.7230146,0,0,1.80078
2021-02-01T18:29:51Z,13.64883,-1.269501,0.1569742,70.12902,0,1156,0,0.4787369,0,43690,10.98819,1027.952,0.0007848709,0,1026.151,0,0.698486279237,-1.27,0.6989141,0,0,1.80078
2021-02-01T18:44:54Z,13.6433,-1.201614,0.1589062,70.63818,0,1156,0,0.541996,0,43690,11.12343,1027.952,0.0007945309,0,1026.151,0,0.704726572332,-1.168,0.7230146,0,0,1.80078
2021-02-01T18:59:51Z,13.6433,-1.303444,0.1270284,69.82352,0,1156,0,0.6075134,0,43690,8.891984,1027.952,0.0006351417,0,1026.151,0,0.709039159762,-1.236,0.7230146,0,0,1.80078
2021-02-01T19:14:54Z,13.6433,-1.201614,0.1260624,69.48408,0,1156,0,0.6278458,0,43690,8.824365,1026.485,0.0006303117,0,1024.685,0,0.711956721826,-1.066,0.7230146,0,0,1.80078
2021-02-01T19:29:56Z,13.6433,-1.167667,0.1135044,70.09508,0,1156,0,0.6278458,0,43690,7.945309,1026.485,0.0005675221,0,1024.685,0,0.712240253489,-1.1,0.6989141,0,0,1.80078
2021-02-01T19:44:53Z,13.64883,-1.405277,0.09321852,69.28041,0,1156,0,0.5645866,0,43690,6.525296,1026.485,0.0004660926,0,1024.685,0,0.70362011358,-1.236,0.6989141,0,0,1.80078
2021-02-01T19:59:56Z,13.65435,-1.303444,0.07003464,69.68774,0,1156,0,0.4154778,0,43690,4.902425,1026.485,0.0003501732,0,1024.685,0,0.705435408776,-1.134,0.747115,0,0,1.80078
2021-02-01T20:14:53Z,13.65988,-1.473167,0.03622482,71.35102,0,1156,0,0.2663651,0,43690,2.535737,1026.404,0.0001811241,0,1024.603,0,0.733852646774,-1.371,0.7230146,0,0,1.80078
2021-02-01T20:29:56Z,13.66541,-1.608265,0.01787091,72.23485,0,1156,0,0.07432938,0,43690,1.250964,1026.404,8.935454e-05,0,1024.603,0,0.757610355331,-1.472,0.7712292,0,0,1.80078
2021-02-01T20:44:53Z,13.6658,-1.744488,0.01400693,72.03034,0,1156,0,-0.1380386,0,43690,0.980485,1026.404,7.003464e-05,0,1024.603,0,0.751414809523,-1.609,0.723019,0,0,1.80078
2021-02-01T20:59:57Z,13.67138,-1.878334,0.01159194,72.06794,0,1156,0,-0.3730011,0,43690,0.8114358,1026.404,5.79597e-05,0,1024.603,0,0.7444292541,-1.777,0.7471575,0,0,1.80078
2021-02-01T21:14:55Z,13.67896,-2.042446,0.00386398,72.41813,0,1156,0,-0.5424461,0,43690,0.2704786,1026.76,1.93199e-05,0,1024.959,0,0.733080309982,-1.874,0.7231626,0,0,1.80078
2021-02-01T21:29:53Z,13.68647,-2.004101,0.000965995,72.08694,0,1156,0,-0.7344818,0,43690,0.06761965,1026.76,4.829975e-06,0,1024.959,0,0.719653215354,-1.97,0.7232464,0,0,1.80078
2021-02-01T21:44:59Z,13.69216,-2.241104,0.0,71.10353,0,1156,0,-0.9265175,0,43690,0.0,1026.76,0.0,0,1024.959,0,0.716165187019,-2.173,0.6991508,0,0,1.80078
2021-02-01T21:59:55Z,13.69769,-2.34296,0.0,71.30729,0,1156,0,-1.075626,0,43690,0.0,1026.76,0.0,0,1024.959,0,0.707282302325,-2.173,0.699151,0,0,1.80078
2021-02-01T22:14:58Z,13.69769,-2.275047,0.0,71.54498,0,1156,0,-1.224739,0,43690,0.0,1026.582,0.0,0,1024.781,0,0.705816349327,-2.241,0.699151,0,0,1.80078
2021-02-01T22:29:56Z,13.70322,-2.376915,0.0,70.11883,0,1156,0,-1.373848,0,43690,0.0,1026.582,0.0,0,1024.781,0,0.70171880532,-2.343,0.699151,0,0,1.80078
2021-02-01T22:44:58Z,13.70875,-2.41087,0.0,70.62818,0,1156,0,-1.522961,0,43690,0.0,1026.582,0.0,0,1024.781,0,0.698158308794,-2.309,0.699151,0,0,1.80078
2021-02-01T22:59:56Z,13.70875,-2.41087,0.0,70.49235,0,1156,0,-1.58622,0,43690,0.0,1026.582,0.0,0,1024.781,0,0.701718800564,-2.309,0.7232597,0,0,1.80078
2021-02-01T23:14:57Z,13.70875,-2.444824,0.0,70.66214,0,1156,0,-1.60881,0,43690,0.0,1027.234,0.0,0,1025.433,0,0.701718801784,-2.377,0.7232597,0,0,1.80078
2021-02-01T23:30:01Z,13.70875,-2.478783,0.0,71.30729,0,1156,0,-1.629143,0,43690,0.0,1027.234,0.0,0,1025.433,0,0.69787467879,-2.411,0.7232597,0,0,1.80078
2021-02-01T23:45:01Z,13.71428,-2.64856,0.0,72.05432,0,1156,0,-1.735329,0,43690,0.0,1027.234,0.0,0,1025.433,0,0.689878464505,-2.581,0.699151,0,0,1.80078
2021-02-01T23:59:56Z,13.71428,-2.81834,0.0,72.66553,0,1156,0,-1.8867,0,43690,0.0,1027.234,0.0,0,1025.433,0,0.683222095955,-2.784,0.6750424,0,0,1.80078
2021-02-02T00:14:58Z,13.72038,-2.783344,0.0,73.51648,0,1156,0,-2.056145,0,43690,0.0,1026.663,0.0,0,1024.862,0,0.656926583377,-2.784,0.6750612,0,0,1.80078
2021-02-02T00:30:02Z,13.72121,-2.746471,0.0,73.42035,0,1156,0,-2.162327,0,43690,0.0,1026.663,0.0,0,1024.862,0,0.646864146038,-2.712,0.6510028,0,0,1.80078
2021-02-02T00:44:57Z,13.72159,-2.983067,0.0,73.69426,0,1156,0,-2.205254,0,43690,0.0,1026.663,0.0,0,1024.862,0,0.642262907844,-2.814,0.6269106,0,0,1.80078
2021-02-02T01:00:00Z,13.73313,-3.083847,0.0,74.78322,0,1156,0,-2.291103,0,43690,0.0,1026.663,0.0,0,1024.862,0,0.643612679934,-3.016,0.6269292,0,0,1.80078
2021-02-02T01:15:00Z,13.73861,-3.252945,0.0,75.49787,0,1156,0,-2.442474,0,43690,0.0,1026.751,0.0,0,1024.95,0,0.645187568687,-3.152,0.6269414,0,0,1.80078
2021-02-02T01:30:00Z,13.74473,-3.25251,0.0,76.07614,0,1156,0,-2.591587,0,43690,0.0,1026.751,0.0,0,1024.95,0,0.645634118931,-3.253,0.6751757,0,0,1.80078
2021-02-02T01:45:00Z,13.74549,-3.419644,0.0,76.52326,0,1156,0,-2.720364,0,43690,0.0,1026.751,0.0,0,1024.95,0,0.650936702263,-3.386,0.6511099,0,0,1.80078
2021-02-02T01:59:59Z,13.74629,-3.519535,0.0,76.45953,0,1156,0,-2.826546,0,43690,0.0,1026.751,0.0,0,1024.95,0,0.649992954895,-3.486,0.6511458,0,0,1.80078
2021-02-02T02:15:03Z,13.75213,-3.553002,0.0,76.42661,0,1156,0,-2.93499,0,43690,0.0,1025.856,0.0,0,1024.055,0,0.647038444089,-3.519,0.6270378,0,0,1.80078
2021-02-02T02:29:59Z,13.75213,-3.58696,0.0,75.95108,0,1156,0,-3.020844,0,43690,0.0,1025.856,0.0,0,1024.055,0,0.640880175763,-3.519,0.627038,0,0,1.80078
2021-02-02T02:45:04Z,13.75213,-3.58696,0.0,76.05298,0,1156,0,-3.106693,0,43690,0.0,1025.856,0.0,0,1024.055,0,0.63952198526,-3.485,0.627038,0,0,1.80078
2021-02-02T03:00:01Z,13.7466,-3.58696,0.0,76.32471,0,1156,0,-3.14962,0,43690,0.0,1025.856,0.0,0,1024.055,0,0.635029353208,-3.519,0.6752716,0,0,1.80078
2021-02-02T03:15:03Z,13.75213,-3.62093,0.0,76.52853,0,1156,0,-3.169952,0,43690,0.0,1025.537,0.0,0,1023.736,0,0.651154798311,-3.553,0.6752716,0,0,1.80078
2021-02-02T03:30:00Z,13.75213,-3.62093,0.0,76.90216,0,1156,0,-3.192547,0,43690,0.0,1025.537,0.0,0,1023.736,0,0.651154800566,-3.587,0.6511548,0,0,1.80078
2021-02-02T03:45:04Z,13.75213,-3.722832,0.0,76.86819,0,1156,0,-3.212879,0,43690,0.0,1025.537,0.0,0,1023.736,0,0.644912800615,-3.689,0.6511548,0,0,1.80078
2021-02-02T04:00:01Z,13.75767,-3.790764,0.0,76.7663,0,1156,0,-3.23547,0,43690,0.0,1025.537,0.0,0,1023.736,0,0.63831152487,-3.655,0.6511548,0,0,1.80078
2021-02-02T04:15:03Z,13.75767,-3.722832,0.0,76.90216,0,1156,0,-3.23547,0,43690,0.0,1025.293,0.0,0,1023.492,0,0.640231304657,-3.655,0.627038,0,0,1.80078
2021-02-02T04:30:05Z,13.75213,-3.790764,0.0,77.10597,0,1156,0,-3.212879,0,43690,0.0,1025.293,0.0,0,1023.492,0,0.640089440502,-3.723,0.627038,0,0,1.80078
2021-02-02T04:45:01Z,13.75767,-3.688862,0.0,76.59646,0,1156,0,-3.192547,0,43690,0.0,1025.293,0.0,0,1023.492,0,0.634173136798,-3.587,0.6029211,0,0,1.80078
2021-02-02T05:00:04Z,13.7466,-3.58696,0.0,76.69836,0,1156,0,-3.106693,0,43690,0.0,1025.293,0.0,0,1023.492,0,0.63157761111,-3.519,0.627038,0,0,1.80078
2021-02-02T05:15:07Z,13.75213,-3.654896,0.0,76.73233,0,1156,0,-3.041176,0,43690,0.0,1024.803,0.0,0,1023.003,0,0.627321700569,-3.553,0.6511548,0,0,1.80078
2021-02-02T05:30:04Z,13.75213,-3.654896,0.0,76.39266,0,1156,0,-2.998249,0,43690,0.0,1024.803,0.0,0,1023.003,0,0.627608784706,-3.621,0.6511548,0,0,1.80078
2021-02-02T05:45:05Z,13.75213,-3.688862,0.0,76.63042,0,1156,0,-2.998249,0,43690,0.0,1024.803,0.0,0,1023.003,0,0.628598473545,-3.621,0.627038,0,0,1.80078
2021-02-02T06:00:06Z,13.7466,-3.485058,0.0,75.81521,0,1156,0,-2.998249,0,43690,0.0,1023.988,0.0,0,1022.187,0,0.629449664725,-3.417,0.627038,0,0,1.80078
2021-02-02T06:15:07Z,13.7466,-3.247288,0.0,75.81521,0,1156,0,-2.955326,0,43690,0.0,1023.988,0.0,0,1022.187,0,0.643636032889,-3.179,0.627038,0,0,1.80078
2021-02-02T06:30:05Z,13.7466,-2.975548,0.0,75.13586,0,1156,0,-2.84914,0,43690,0.0,1023.988,0.0,0,1022.187,0,0.65649713232,-2.908,0.7235053,0,0,1.80078
2021-02-02T06:45:09Z,13.74107,-2.907871,0.0,74.456,0,1156,0,-2.677437,0,43690,0.0,1023.988,0.0,0,1022.187,0,0.667637877942,-2.772,0.675267,0,0,1.80078
2021-02-02T07:00:09Z,13.72963,-2.739967,0.0,74.21438,0,1156,0,-2.505733,0,43690,0.0,1022.238,0.0,0,1020.437,0,0.68103544266,-2.673,0.6993474,0,0,1.80078
2021-02-02T07:15:10Z,13.72801,-2.472134,0.0,74.44442,0,1156,0,-2.33403,0,43690,0.0,1022.238,0.0,0,1020.437,0,0.682561459414,-2.438,0.6751619,0,0,1.80078
2021-02-02T07:30:11Z,13.72197,-2.37051,0.0,74.64767,0,1156,0,-2.141994,0,43690,0.0,1022.238,0.0,0,1020.437,0,0.686789427635,-2.371,0.6992699,0,0,1.80078
2021-02-02T07:45:12Z,13.71525,-2.406757,0.0,74.71105,0,1156,0,-1.992886,0,43690,0.0,1022.238,0.0,0,1020.437,0,0.687472964175,-2.373,0.6751162,0,0,1.80078
2021-02-02T08:00:08Z,13.7144,-2.307762,0.0,74.43368,0,1156,0,-1.864105,0,43690,0.0,1022.361,0.0,0,1020.56,0,0.686645385144,-2.24,0.6750646,0,0,1.80078
2021-02-02T08:15:10Z,13.71429,-2.308956,0.0,74.46528,0,1156,0,-1.778255,0,43690,0.0,1022.361,0.0,0,1020.56,0,0.686393961729,-2.139,0.6750432,0,0,1.80078
2021-02-02T08:30:12Z,13.71429,-2.071259,0.0,74.90672,0,1156,0,-1.714996,0,43690,0.0,1022.361,0.0,0,1020.56,0,0.687384052899,-2.037,0.7232607,0,0,1.80078
2021-02-02T08:45:08Z,13.70876,-2.003384,0.0,75.17829,0,1156,0,-1.60881,0,43690,0.0,1022.361,0.0,0,1020.56,0,0.691875989919,-1.868,0.6991512,0,0,1.80078
2021-02-02T09:00:10Z,13.70323,-1.901516,0.0,76.0951,0,1156,0,-1.500366,0,43690,0.0,1020.959,0.0,0,1019.158,0,0.691634995882,-1.834,0.6750426,0,0,1.80078
2021-02-02T09:15:10Z,13.6977,-2.139206,0.0,81.12057,0,1156,0,-1.416775,0,43690,0.0,1020.959,0.0,0,1019.158,0,0.692769521709,-2.037,0.6750426,0,0,1.80078
2021-02-02T09:30:10Z,13.6977,-2.3769,0.0,84.82176,0,1156,0,-1.416775,0,43690,0.0,1020.959,0.0,0,1019.158,0,0.683551507228,-2.309,0.6991512,0,0,1.80078
2021-02-02T09:45:11Z,13.6977,-2.308987,0.0,86.72329,0,1156,0,-1.437107,0,43690,0.0,1020.959,0.0,0,1019.158,0,0.661428271098,-2.241,0.6509339,0,0,1.80078
2021-02-02T10:00:13Z,13.6977,-2.342941,0.0,88.42108,0,1156,0,-1.437107,0,43690,0.0,1019.736,0.0,0,1017.936,0,0.64653761004,-2.309,0.6509339,0,0,1.80078
2021-02-02T10:15:14Z,13.70323,-2.207119,0.0,88.76064,0,1156,0,-1.416775,0,43690,0.0,1019.736,0.0,0,1017.936,0,0.655613824843,-2.071,0.6268252,0,0,1.80078
2021-02-02T10:30:10Z,13.6977,-2.105251,0.0,88.86251,0,1156,0,-1.373848,0,43690,0.0,1019.736,0.0,0,1017.936,0,0.655784170498,-1.935,0.6750426,0,0,1.80078
2021-02-02T10:45:13Z,13.6977,-2.003384,0.0,90.45843,0,1156,0,-1.310589,0,43690,0.0,1019.736,0.0,0,1017.936,0,0.669086311741,-1.935,0.6991512,0,0,1.80078
2021-02-02T11:00:15Z,13.6977,-2.003384,0.0,92.29206,0,1156,0,-1.245071,0,43690,0.0,1018.921,0.0,0,1017.121,0,0.6872387176,-1.969,0.6991512,0,0,1.80078
2021-02-02T11:15:11Z,13.6977,-2.003384,0.0,93.41259,0,1156,0,-1.202145,0,43690,0.0,1018.921,0.0,0,1017.121,0,0.688880082827,-1.969,0.6991512,0,0,1.80078
2021-02-02T11:30:12Z,13.6977,-1.969429,0.0,93.88798,0,1156,0,-1.138886,0,43690,0.0,1018.921,0.0,0,1017.121,0,0.688231424102,-1.834,0.6750426,0,0,1.80078
2021-02-02T11:45:15Z,13.6977,-1.629868,0.0004830792,94.15962,0,1156,0,-1.053036,0,43690,0.03381554,1018.921,2.415396e-06,0,1017.121,0,0.661570083614,-1.494,0.6268252,0,0,1.80078
2021-02-02T12:00:13Z,13.68664,-1.358223,0.001449133,94.49918,0,1156,0,-0.9265175,0,43690,0.1014393,1017.699,7.245662e-06,0,1015.898,0,0.667767180471,-1.358,0.6750426,0,0,1.80078
2021-02-02T12:15:17Z,13.68111,-1.086575,0.003864165,94.80478,0,1156,0,-0.7548142,0,43690,0.2704915,1017.699,1.932082e-05,0,1015.898,0,0.70227116772,-1.053,0.6991512,0,0,1.80078
2021-02-02T12:30:14Z,13.67558,-0.9507522,0.005312994,94.80478,0,1156,0,-0.52211,0,43690,0.3719096,1017.699,2.656497e-05,0,1015.898,0,0.703716170978,-0.849,0.6991512,0,0,1.80078
2021-02-02T12:45:12Z,13.66855,-0.6492576,0.002414988,94.89674,0,1156,0,-0.3504066,0,43690,0.1690491,1017.699,1.207494e-05,0,1015.898,0,0.694985269828,-0.717,0.6749721,0,0,1.80078
2021-02-02T13:00:17Z,13.6554,-0.755806,0.006761966,94.78355,0,1156,0,-0.158371,0,43690,0.4733376,1015.873,3.380982e-05,0,1014.072,0,0.689542552899,-0.62,0.6989947,0,0,1.80078